[TLELIST] Archives

 

[list_settings.list_name] Current TLEs

April 26th 2010 PST

HST 1 20580U 90037B 10110.59790984 .00000546 00000-0 28962-4 0 5530 2 20580 028.4707 255.8109 0003219 312.8116 047.2138 15.00954638896090 ISS (ZARYA) 1 25544U 98067A 10111.49552507 .00013653 00000-0 93719-4 0 162 2 25544 051.6458 161.5382 0003274 189.7157 311.2420 15.75046047654547 CXO 1 25867U 99040B 10110.91666667 .00000445 00000-0 10000-3 0 4543 2 25867 066.8584 056.3706 8071880 275.1976 003.1428 00.37803957 6177 ____________________________________________________________________ These 2-Line ...Continue Reading

[list_settings.list_name] Current TLEs

April 25th 2010 PST

HST 1 20580U 90037B 10110.59790984 .00000546 00000-0 28962-4 0 5530 2 20580 028.4707 255.8109 0003219 312.8116 047.2138 15.00954638896090 ISS (ZARYA) 1 25544U 98067A 10111.49552507 .00013653 00000-0 93719-4 0 162 2 25544 051.6458 161.5382 0003274 189.7157 311.2420 15.75046047654547 CXO 1 25867U 99040B 10110.91666667 .00000445 00000-0 10000-3 0 4543 2 25867 066.8584 056.3706 8071880 275.1976 003.1428 00.37803957 6177 ____________________________________________________________________ These 2-Line ...Continue Reading

[list_settings.list_name] Current TLEs

April 24th 2010 PST

HST 1 20580U 90037B 10110.59790984 .00000546 00000-0 28962-4 0 5530 2 20580 028.4707 255.8109 0003219 312.8116 047.2138 15.00954638896090 ISS (ZARYA) 1 25544U 98067A 10111.49552507 .00013653 00000-0 93719-4 0 162 2 25544 051.6458 161.5382 0003274 189.7157 311.2420 15.75046047654547 CXO 1 25867U 99040B 10110.91666667 .00000445 00000-0 10000-3 0 4543 2 25867 066.8584 056.3706 8071880 275.1976 003.1428 00.37803957 6177 ____________________________________________________________________ These 2-Line ...Continue Reading

[list_settings.list_name] Current TLEs

April 23rd 2010 PST

HST 1 20580U 90037B 10110.59790984 .00000546 00000-0 28962-4 0 5530 2 20580 028.4707 255.8109 0003219 312.8116 047.2138 15.00954638896090 ISS (ZARYA) 1 25544U 98067A 10111.49552507 .00013653 00000-0 93719-4 0 162 2 25544 051.6458 161.5382 0003274 189.7157 311.2420 15.75046047654547 CXO 1 25867U 99040B 10110.91666667 .00000445 00000-0 10000-3 0 4543 2 25867 066.8584 056.3706 8071880 275.1976 003.1428 00.37803957 6177 ____________________________________________________________________ These 2-Line ...Continue Reading

[list_settings.list_name] Current TLEs

April 22nd 2010 PST

HST 1 20580U 90037B 10110.59790984 .00000546 00000-0 28962-4 0 5530 2 20580 028.4707 255.8109 0003219 312.8116 047.2138 15.00954638896090 ISS (ZARYA) 1 25544U 98067A 10111.49552507 .00013653 00000-0 93719-4 0 162 2 25544 051.6458 161.5382 0003274 189.7157 311.2420 15.75046047654547 CXO 1 25867U 99040B 10110.91666667 .00000445 00000-0 10000-3 0 4543 2 25867 066.8584 056.3706 8071880 275.1976 003.1428 00.37803957 6177 ____________________________________________________________________ These 2-Line ...Continue Reading

[list_settings.list_name] Current TLEs

April 21st 2010 PST

HST 1 20580U 90037B 10110.59790984 .00000546 00000-0 28962-4 0 5530 2 20580 028.4707 255.8109 0003219 312.8116 047.2138 15.00954638896090 ISS (ZARYA) 1 25544U 98067A 10111.16400255 .00021484 00000-0 14481-3 0 145 2 25544 051.6457 163.2401 0003323 197.1713 222.7803 15.75063036654495 CXO 1 25867U 99040B 10110.91666667 .00000445 00000-0 10000-3 0 4543 2 25867 066.8584 056.3706 8071880 275.1976 003.1428 00.37803957 6177 ____________________________________________________________________ These 2-Line ...Continue Reading

[list_settings.list_name] Current TLEs

April 20th 2010 PST

HST 1 20580U 90037B 10107.87167482 .00000589 00000-0 32307-4 0 5522 2 20580 028.4703 273.6077 0003263 277.9435 082.0792 15.00952834895685 ISS (ZARYA) 1 25544U 98067A 10110.34611132 .00011535 00000-0 79980-4 0 100 2 25544 051.6458 167.4499 0003373 186.1573 273.0990 15.75008351654367 CXO 1 25867U 99040B 10110.91666667 .00000445 00000-0 10000-3 0 4543 2 25867 066.8584 056.3706 8071880 275.1976 003.1428 00.37803957 6177 ____________________________________________________________________ These 2-Line ...Continue Reading

[list_settings.list_name] Current TLEs

April 19th 2010 PST

HST 1 20580U 90037B 10107.87167482 .00000589 00000-0 32307-4 0 5522 2 20580 028.4703 273.6077 0003263 277.9435 082.0792 15.00952834895685 ISS (ZARYA) 1 25544U 98067A 10109.38621987 .00010016 00000-0 70092-4 0 20 2 25544 051.6460 172.3872 0003395 182.9618 230.0469 15.74982730654217 CXO 1 25867U 99040B 10108.25000000 .00000429 00000-0 10000-3 0 4531 2 25867 066.8554 056.4952 8065336 275.2259 000.0345 00.37798699 6161 ____________________________________________________________________ These 2-Line ...Continue Reading

[list_settings.list_name] Current TLEs

April 18th 2010 PST

HST 1 20580U 90037B 10107.87167482 .00000589 00000-0 32307-4 0 5522 2 20580 028.4703 273.6077 0003263 277.9435 082.0792 15.00952834895685 ISS (ZARYA) 1 25544U 98067A 10108.52547454 .00053790 00000-0 35617-3 0 9962 2 25544 051.6464 176.8144 0003303 182.6077 026.7640 15.74979718654074 CXO 1 25867U 99040B 10108.25000000 .00000429 00000-0 10000-3 0 4531 2 25867 066.8554 056.4952 8065336 275.2259 000.0345 00.37798699 6161 ____________________________________________________________________ These 2-Line ...Continue Reading

[list_settings.list_name] Current TLEs

April 17th 2010 PST

HST 1 20580U 90037B 10106.87427107 .00000605 00000-0 33523-4 0 5513 2 20580 028.4707 280.1181 0003225 268.0790 091.9424 15.00952157895534 ISS (ZARYA) 1 25544U 98067A 10107.36220131 .00023170 00000-0 15706-3 0 9891 2 25544 051.6467 182.7897 0004378 178.2411 271.1916 15.74874876653894 CXO 1 25867U 99040B 10108.25000000 .00000429 00000-0 10000-3 0 4531 2 25867 066.8554 056.4952 8065336 275.2259 000.0345 00.37798699 6161 ____________________________________________________________________ These 2-Line ...Continue Reading
  • This mailing list is a public mailing list - anyone may join or leave, at any time.
  • This mailing list is announce-only.

International Space Station (ISS) / Hubble Space Telescope (HST) / Chandra X-Ray Observatory Orbital Data via EMAIL

Privacy Policy:

Private list